Location: Goudex
(43.3760°N, 0.9543°E)
Time: 14:10:10
(UTC+00:00)

Cosmos 2237 - Pass Details

Date: 20 November 2019
Orbit: 845 x 858 km, 70.8° (Epoch: 05 December)

Event Time Altitude Azimuth Distance (km) Brightness Sun altitude
Exits shadow 05:37:23 - 330° (NNW) 2,656 6.4 -14.1°
Reaches altitude 10° 05:37:48 10° 330° (NNW) 2,495 6.2 -14.0°
Maximum altitude 05:43:28 66° 249° (WSW) 931 4.2 -13.0°
Drops below altitude 10° 05:49:05 10° 168° (SSE) 2,470 7.0 -12.0°
Sets 05:51:32 0° 166° (SSE) 3,399 7.8 -11.6°
